DW7447 Guisborough UK current weather conditions

sailwx.info

Wind from 183 at 1 knots gusting 3

Air temperature 9.4° C
Dewpoint 5.4° C

Last reported at 2020-May-31 03:05 UTC.
Time now 2020-May-31 03:43 UTC

Location: N 54°32' W 001°12'.
View on Google Maps.

See reports from other nearby stations

  
Tides and Currents Weather Stations Pressure Air Temp Water Temp Dewpoint Dewpoint Depression Visibility Wind Speed Wind Dir Waves Ship Positions
date/time (UTC)wind fromknots sea level pressurealtimeterstation pressurevisibilityair tempwater tempwave heightnotes
2020-May-31 03:05 183 1 gusting 3 9.4
2020-May-31 03:00 196 2 gusting 2 9.4
2020-May-31 02:55 195 9.4
2020-May-31 02:50 195 9.4
2020-May-31 02:45 193 0 gusting 4 9.4
2020-May-31 02:40 197 1 gusting 6 9.4
2020-May-31 02:35 192 3 gusting 6 9.4
2020-May-31 02:30 203 3 gusting 6 9.4
2020-May-31 02:25 166 1 gusting 6 10.0
2020-May-31 02:20 196 4 gusting 6 10.0
2020-May-31 02:15 197 5 gusting 6 10.0
2020-May-31 02:10 226 4 gusting 8 10.0
2020-May-31 02:05 202 3 gusting 8 10.0
2020-May-31 02:00 185 5 gusting 6 9.4
2020-May-31 01:55 117 1 gusting 5 9.4
2020-May-31 01:50 9.4
2020-May-31 01:45 9.4
2020-May-31 01:40 9.4
2020-May-31 01:35 9.4
2020-May-31 01:30 9.4
2020-May-31 01:25 9.4
2020-May-31 01:20 10.0
2020-May-31 01:15 10.0
2020-May-31 01:10 10.0
2020-May-31 01:05 10.0
2020-May-31 01:00 10.0
2020-May-31 00:55 018 10.6
2020-May-31 00:50 016 0 gusting 3 10.6
2020-May-31 00:45 107 0 gusting 2 10.6
2020-May-31 00:40 085 0 gusting 4 10.6
2020-May-31 00:35 213 2 gusting 4 10.6
2020-May-31 00:30 180 2 gusting 3 10.6
2020-May-31 00:25 097 1 gusting 2 10.0
2020-May-31 00:20 179 10.6
2020-May-31 00:15 180 0 gusting 4 10.6
2020-May-31 00:10 212 1 gusting 4 10.6
2020-May-31 00:05 204 2 gusting 3 10.6
2020-May-31 00:00 130 1 gusting 3 10.6
2020-May-30 23:55 193 1 gusting 4 10.6
2020-May-30 23:50 159 2 gusting 4 10.6
2020-May-30 23:45 196 2 gusting 5 10.6
2020-May-30 23:40 196 3 gusting 5 10.6
2020-May-30 23:35 157 0 gusting 2 10.6
2020-May-30 23:30 257 1 gusting 2 10.6
2020-May-30 23:25 293 10.6
2020-May-30 23:20 282 1 gusting 4 10.6
2020-May-30 23:15 240 1 gusting 2 10.6
2020-May-30 23:10 172 0 gusting 2 10.6
2020-May-30 23:05 154 10.6
2020-May-30 23:00 161 0 gusting 3 11.1
2020-May-30 22:55 292 1 gusting 2 11.1
2020-May-30 22:50 283 1 gusting 3 11.1
2020-May-30 22:45 279 1 gusting 5 11.1
2020-May-30 22:40 258 2 gusting 5 11.7
2020-May-30 22:34 274 0 gusting 3 11.7
2020-May-30 22:29 259 1 gusting 3 11.7
2020-May-30 22:24 251 11.7
2020-May-30 22:19 251 1 gusting 7 11.7
2020-May-30 22:14 085 3 gusting 7 11.7
2020-May-30 22:09 102 0 gusting 2 11.7
2020-May-30 22:04 096 1 gusting 3 11.7
2020-May-30 21:59 148 0 gusting 3 11.7
2020-May-30 21:54 032 2 gusting 3 11.7
2020-May-30 21:49 025 11.7
2020-May-30 21:44 051 0 gusting 5 11.7
2020-May-30 21:39 051 2 gusting 5 12.2
2020-May-30 21:34 042 0 gusting 3 12.2
2020-May-30 21:29 072 1 gusting 3 12.2
2020-May-30 21:24 144 12.2
2020-May-30 21:19 090 0 gusting 3 12.2
2020-May-30 21:14 123 0 gusting 2 12.2
2020-May-30 21:09 041 12.2
2020-May-30 21:04 041 12.8
2020-May-30 20:59 041 1 gusting 6 12.8
2020-May-30 20:54 041 1 gusting 4 12.8
2020-May-30 20:49 055 1 gusting 3 12.8
2020-May-30 20:44 063 0 gusting 3 12.8
2020-May-30 20:39 044 2 gusting 3 12.8
2020-May-30 20:34 038 2 gusting 3 12.8
2020-May-30 20:29 035 1 gusting 4 12.8
2020-May-30 20:24 035 3 gusting 5 13.3
2020-May-30 20:19 052 3 gusting 5 13.3
2020-May-30 20:14 058 2 gusting 4 13.3
2020-May-30 20:09 065 1 gusting 4 13.9
2020-May-30 20:04 082 1 gusting 4 13.9
2020-May-30 19:59 062 1 gusting 5 13.9
2020-May-30 19:54 055 2 gusting 6 14.4
2020-May-30 19:49 076 2 gusting 6 14.4
2020-May-30 19:44 109 2 gusting 5 14.4
2020-May-30 19:39 078 2 gusting 10 14.4
2020-May-30 19:34 066 2 gusting 10 14.4
2020-May-30 19:29 080 3 gusting 8 14.4
2020-May-30 19:24 089 3 gusting 5 15.0
2020-May-30 19:19 066 2 gusting 5 15.0
2020-May-30 19:14 085 2 gusting 5 15.0
2020-May-30 19:09 085 2 gusting 6 15.0
2020-May-30 19:04 069 2 gusting 6 15.6
2020-May-30 18:59 061 3 gusting 8 15.6
2020-May-30 18:54 058 5 gusting 8 15.6
2020-May-30 18:49 071 5 gusting 8 16.1
2020-May-30 18:44 082 4 gusting 8 16.1
2020-May-30 18:39 104 5 gusting 10 16.7
2020-May-30 18:34 099 6 gusting 10 16.7
2020-May-30 18:29 073 5 gusting 9 17.2
2020-May-30 18:24 086 1 gusting 8 17.2
2020-May-30 18:19 068 4 gusting 9 17.2
2020-May-30 18:14 055 4 gusting 9 17.2
2020-May-30 18:09 080 5 gusting 11 17.2
2020-May-30 18:04 054 6 gusting 12 17.8
2020-May-30 17:59 099 5 gusting 12 17.8
2020-May-30 17:53 085 6 gusting 12 17.8
2020-May-30 17:49 134 5 gusting 12 18.3
2020-May-30 17:43 066 5 gusting 10 18.3
2020-May-30 17:39 107 6 gusting 10 18.3
2020-May-30 17:33 117 6 gusting 9 18.3
2020-May-30 17:29 072 4 gusting 10 18.3
2020-May-30 17:23 093 2 gusting 10 18.3
2020-May-30 17:19 082 4 gusting 8 18.3
2020-May-30 17:13 083 6 gusting 12 18.3
2020-May-30 17:08 117 6 gusting 12 18.3
2020-May-30 17:03 080 7 gusting 11 18.3
2020-May-30 16:59 079 7 gusting 11 18.3
2020-May-30 16:53 054 6 gusting 12 18.3
2020-May-30 16:49 066 6 gusting 14 18.3
2020-May-30 16:43 093 7 gusting 14 18.3
2020-May-30 16:38 137 6 gusting 13 18.9
2020-May-30 16:33 102 6 gusting 13 18.9
2020-May-30 16:28 138 6 gusting 13 18.9
2020-May-30 16:23 082 7 gusting 12 19.4
2020-May-30 16:18 037 5 gusting 12 19.4
2020-May-30 16:13 133 5 gusting 13 19.4
2020-May-30 16:08 082 3 gusting 16 19.4
2020-May-30 16:03 062 8 gusting 16 19.4
2020-May-30 15:58 100 6 gusting 12 19.4
2020-May-30 15:53 092 5 gusting 13 20.0
2020-May-30 15:48 056 6 gusting 13 19.4
2020-May-30 15:43 068 6 gusting 13 19.4
2020-May-30 15:38 068 8 gusting 13 19.4
2020-May-30 15:33 087 6 gusting 14 19.4
2020-May-30 15:28 117 6 gusting 14 19.4
2020-May-30 15:23 096 7 gusting 17 19.4
2020-May-30 15:18 083 8 gusting 17 20.0
2020-May-30 15:13 083 8 gusting 13 20.0
2020-May-30 15:09 072 9 gusting 13 20.0
2020-May-30 15:03 147 6 gusting 13 20.0
2020-May-30 14:58 051 7 gusting 13 20.0
2020-May-30 14:53 061 8 gusting 13 20.0
2020-May-30 14:48 100 6 gusting 13 20.0
2020-May-30 14:43 124 7 gusting 12 20.0
2020-May-30 14:38 103 6 gusting 14 20.0
2020-May-30 14:33 078 7 gusting 13 20.6
2020-May-30 14:28 118 5 gusting 13 20.6
2020-May-30 14:23 059 6 gusting 12 20.6
2020-May-30 14:18 065 6 gusting 10 20.0
2020-May-30 14:13 120 6 gusting 12 20.0
2020-May-30 14:08 107 6 gusting 12 20.0
2020-May-30 14:03 078 6 gusting 12 20.0
2020-May-30 13:58 051 6 gusting 12 20.0
2020-May-30 13:53 110 6 gusting 11 20.0
2020-May-30 13:48 076 6 gusting 11 20.0
2020-May-30 13:43 111 4 gusting 14 19.4
2020-May-30 13:38 044 7 gusting 14 19.4
2020-May-30 13:33 094 6 gusting 13 19.4
2020-May-30 13:29 096 6 gusting 13 19.4
2020-May-30 13:23 093 5 gusting 13 19.4
2020-May-30 13:18 045 6 gusting 13 19.4
2020-May-30 13:13 114 6 gusting 13 19.4
2020-May-30 13:08 061 7 gusting 13 19.4
2020-May-30 13:03 063 6 gusting 13 19.4
2020-May-30 12:58 052 5 gusting 10 19.4
2020-May-30 12:53 131 5 gusting 13 19.4
2020-May-30 12:48 121 8 gusting 13 19.4
2020-May-30 12:43 056 5 gusting 10 19.4
2020-May-30 12:38 100 5 gusting 10 19.4
2020-May-30 12:33 080 5 gusting 15 19.4
2020-May-30 12:28 039 8 gusting 17 18.9
2020-May-30 12:23 013 8 gusting 17 18.9
2020-May-30 12:18 066 9 gusting 13 19.4
2020-May-30 12:13 082 6 gusting 13 19.4
2020-May-30 12:08 118 6 gusting 13 18.9
2020-May-30 12:03 134 9 gusting 13 18.9
2020-May-30 11:58 109 7 gusting 13 18.9
2020-May-30 11:53 068 6 gusting 13 18.9
2020-May-30 11:48 113 6 gusting 13 18.9
2020-May-30 11:43 028 7 gusting 15 18.9
2020-May-30 11:38 148 6 gusting 15 18.9
2020-May-30 11:33 102 5 gusting 12 19.4
2020-May-30 11:28 093 7 gusting 15 19.4
2020-May-30 11:23 080 6 gusting 15 19.4
2020-May-30 11:19 062 8 gusting 13 20.0
2020-May-30 11:13 175 4 gusting 11 20.0
2020-May-30 11:08 137 7 gusting 9 20.0
2020-May-30 11:03 058 6 gusting 12 20.0
2020-May-30 10:58 113 4 gusting 12 19.4
2020-May-30 10:53 045 4 gusting 8 19.4
2020-May-30 10:48 082 5 gusting 9 19.4
2020-May-30 10:43 157 4 gusting 11 19.4
2020-May-30 10:39 080 6 gusting 11 19.4
2020-May-30 10:33 104 6 gusting 11 19.4
2020-May-30 10:28 128 5 gusting 11 19.4
2020-May-30 10:23 096 3 gusting 13 19.4
2020-May-30 10:18 120 3 gusting 13 19.4
2020-May-30 10:13 099 4 gusting 13 19.4
2020-May-30 10:08 144 6 gusting 13 18.9
2020-May-30 10:03 079 1 gusting 10 18.9
2020-May-30 09:58 103 6 gusting 10 18.9
2020-May-30 09:53 102 5 gusting 10 18.9
2020-May-30 09:48 079 4 gusting 14 18.9
2020-May-30 09:43 065 7 gusting 14 18.9
2020-May-30 09:38 028 5 gusting 12 18.9
2020-May-30 09:33 113 5 gusting 12 18.3
2020-May-30 09:28 103 4 gusting 9 18.3
2020-May-30 09:23 069 3 gusting 10 18.3
2020-May-30 09:18 085 3 gusting 10 18.3
2020-May-30 09:13 106 4 gusting 9 17.8
2020-May-30 09:08 141 6 17.8
2020-May-30 08:56 103 2 gusting 9 17.8
2020-May-30 08:51 123 6 gusting 7 17.8
2020-May-30 08:46 087 4 gusting 7 17.2
2020-May-30 08:41 103 4 gusting 8 17.2
2020-May-30 08:36 137 6 gusting 9 16.7
2020-May-30 08:31 120 6 gusting 9 16.7
2020-May-30 08:26 172 1 gusting 6 16.7
2020-May-30 08:21 111 3 gusting 7 16.1
2020-May-30 08:16 082 4 gusting 7 15.6
2020-May-30 08:11 102 5 gusting 6 15.0
2020-May-30 08:06 103 1 gusting 5 15.0
2020-May-30 08:01 113 3 gusting 7 14.4
2020-May-30 07:56 148 2 gusting 8 14.4
2020-May-30 07:51 107 5 gusting 8 14.4
2020-May-30 07:46 082 4 gusting 7 14.4
2020-May-30 07:41 079 1 gusting 3 14.4
2020-May-30 07:36 086 1 gusting 6 14.4
2020-May-30 07:31 162 2 gusting 6 13.9
2020-May-30 07:26 116 1 gusting 5 13.3
2020-May-30 07:21 078 3 gusting 4 13.3
2020-May-30 07:16 120 2 gusting 3 12.8
2020-May-30 07:11 085 1 gusting 3 12.8
2020-May-30 07:06 172 0 gusting 5 12.8
2020-May-30 07:01 175 3 gusting 5 12.8
2020-May-30 06:56 178 2 gusting 6 12.8
2020-May-30 06:51 154 2 gusting 7 12.2
2020-May-30 06:46 140 3 gusting 7 12.2
2020-May-30 06:41 151 2 gusting 4 12.2
2020-May-30 06:36 133 1 gusting 5 11.7
2020-May-30 06:31 078 2 gusting 5 11.7
2020-May-30 06:26 166 3 gusting 5 11.7
2020-May-30 06:21 164 1 gusting 3 11.7
2020-May-30 06:16 192 1 gusting 3 11.1
2020-May-30 06:11 348 1 gusting 2 11.1
2020-May-30 06:06 303 0 gusting 2 11.1
2020-May-30 06:01 336 10.6
2020-May-30 05:56 358 10.6
2020-May-30 05:51 358 0 gusting 2 10.6
2020-May-30 05:46 358 10.6
2020-May-30 05:41 10.0
2020-May-30 05:36 323 2 gusting 3 9.4
2020-May-30 05:31 302 0 gusting 2 9.4
2020-May-30 05:26 288 9.4
2020-May-30 05:21 250 9.4
2020-May-30 05:16 020 0 gusting 2 8.9
2020-May-30 05:11 020 8.9
2020-May-30 05:06 020 8.9
2020-May-30 05:01 020 8.9
2020-May-30 04:56 059 8.9
2020-May-30 04:51 059 8.9
2020-May-30 04:45 059 8.3
2020-May-30 04:40 059 8.3
2020-May-30 04:35 007 1 gusting 2 8.3
2020-May-30 04:30 007 0 gusting 2 8.3
2020-May-30 04:25 006 8.9
2020-May-30 04:20 059 1 gusting 2 8.9
2020-May-30 04:15 149 8.9
2020-May-30 04:10 172 8.9
2020-May-30 04:05 172 9.4
2020-May-30 04:00 172 9.4
2020-May-30 03:55 172 2 gusting 6 9.4
2020-May-30 03:50 192 3 gusting 7 9.4
2020-May-30 03:45 193 4 gusting 9 9.4
2020-May-30 03:40 221 6 gusting 9 9.4
2020-May-30 03:35 186 4 gusting 5 9.4
2020-May-30 03:30 157 0 gusting 4 9.4
2020-May-30 03:25 165 3 gusting 5 9.4
2020-May-30 03:20 149 3 gusting 5 9.4
2020-May-30 03:15 110 1 gusting 2 9.4
2020-May-30 03:10 113 1 gusting 4 9.4
2020-May-30 03:05 032 2 gusting 4 9.4
2020-May-30 03:00 027 9.4
2020-May-30 02:55 027 9.4
2020-May-30 02:50 024 9.4
2020-May-30 02:45 025 9.4
2020-May-30 02:40 113 10.0
2020-May-30 02:35 113 10.0
2020-May-30 02:30 113 1 gusting 3 10.0
2020-May-30 02:25 140 1 gusting 3 10.0
2020-May-30 02:20 180 10.0
2020-May-30 02:15 180 1 gusting 4 10.0
2020-May-30 02:10 190 1 gusting 2 10.6
2020-May-30 02:05 188 1 gusting 3 10.6
2020-May-30 02:00 186 1 gusting 3 10.6
2020-May-30 01:55 113 0 gusting 5 10.6
2020-May-30 01:50 111 2 gusting 5 10.6
2020-May-30 01:45 196 0 gusting 5 10.6
2020-May-30 01:35 093 2 gusting 5 10.6
2020-May-30 01:25 080 10.6
2020-May-30 01:15 080 0 gusting 2 10.6
2020-May-30 01:10 078 11.1
2020-May-30 01:05 078 11.1
2020-May-30 01:00 078 11.1
2020-May-30 00:55 078 11.1
2020-May-30 00:50 078 1 gusting 3 11.7
2020-May-30 00:45 104 1 gusting 3 11.7
2020-May-30 00:40 149 11.7
2020-May-30 00:35 044 1 gusting 2 11.7
2020-May-30 00:25 338 11.7
2020-May-30 00:20 11.7
2020-May-30 00:15 321 0 gusting 2 11.7
2020-May-30 00:10 321 11.7
2020-May-30 00:05 321 1 gusting 4 11.7
2020-May-30 00:00 226 2 gusting 4 11.7
2020-May-29 23:55 333 2 gusting 3 11.7
2020-May-29 23:50 254 1 gusting 5 11.7
2020-May-29 23:45 248 0 gusting 5 12.2
2020-May-29 23:40 245 2 gusting 5 12.2
2020-May-29 23:35 121 1 gusting 7 12.2
2020-May-29 23:30 243 2 gusting 7 12.2
2020-May-29 23:24 238 2 gusting 4 12.2
2020-May-29 23:20 338 1 gusting 5 12.8
2020-May-29 23:14 155 3 gusting 6 12.8
2020-May-29 23:09 247 5 gusting 6 12.8
2020-May-29 23:04 265 1 gusting 8 12.8
2020-May-29 22:59 279 4 gusting 8 12.8
2020-May-29 22:54 279 1 gusting 4 13.3
2020-May-29 22:50 199 2 gusting 6 13.3
2020-May-29 22:44 152 3 gusting 6 13.3
2020-May-29 22:39 217 13.3
2020-May-29 22:34 219 3 gusting 3 13.3
2020-May-29 22:29 286 1 gusting 4 13.3
2020-May-29 22:24 134 2 gusting 4 13.3
2020-May-29 22:19 052 1 gusting 3 13.3
2020-May-29 22:14 230 0 gusting 5 13.3
2020-May-29 22:09 283 3 gusting 5 13.3
2020-May-29 22:04 330 1 gusting 4 13.3
2020-May-29 21:59 252 1 gusting 6 13.3
2020-May-29 21:54 217 3 gusting 6 13.3
2020-May-29 21:49 234 1 gusting 5 13.3
2020-May-29 21:44 224 1 gusting 5 13.3
2020-May-29 21:39 183 2 gusting 4 13.3
2020-May-29 21:34 202 0 gusting 6 13.9
2020-May-29 21:29 210 3 gusting 6 13.9
2020-May-29 21:24 086 2 gusting 4 13.9
2020-May-29 21:19 230 2 gusting 5 13.9
2020-May-29 21:14 227 2 gusting 6 13.9
2020-May-29 21:09 186 2 gusting 6 13.9
2020-May-29 21:04 111 4 gusting 6 14.4
2020-May-29 20:59 158 2 gusting 9 14.4
2020-May-29 20:54 059 3 gusting 12 14.4
2020-May-29 20:49 185 5 gusting 12 15.0
2020-May-29 20:44 228 6 gusting 10 15.0
2020-May-29 20:39 183 3 gusting 11 15.0
2020-May-29 20:34 183 4 gusting 11 15.6
2020-May-29 20:29 114 2 gusting 12 15.6
2020-May-29 20:24 173 7 gusting 12 15.6
2020-May-29 20:19 158 4 gusting 12 16.1
2020-May-29 20:14 176 6 gusting 12 16.1
2020-May-29 20:09 238 6 gusting 12 16.1
2020-May-29 20:04 175 6 gusting 12 16.7
2020-May-29 19:59 182 6 gusting 10 16.7
2020-May-29 19:54 179 6 gusting 11 17.2
2020-May-29 19:49 196 7 gusting 11 17.2
2020-May-29 19:44 144 5 gusting 10 17.2
2020-May-29 19:39 212 6 gusting 13 17.8
2020-May-29 19:34 210 6 gusting 13 17.8
2020-May-29 19:29 209 5 gusting 12 17.8
2020-May-29 19:24 164 3 gusting 12 18.3
2020-May-29 19:19 186 5 gusting 13 18.3
2020-May-29 19:09 118 5 gusting 11 18.9
2020-May-29 19:04 206 5 gusting 11 18.9
2020-May-29 18:59 190 7 gusting 11 18.9
2020-May-29 18:54 171 7 gusting 9 19.4
2020-May-29 18:49
2020-May-29 18:41 161 8 gusting 13 20.0
2020-May-29 18:36 183 9 gusting 12 20.0
2020-May-29 18:31 159 6 gusting 12 20.6
2020-May-29 18:26 171 8 gusting 12 20.6
2020-May-29 18:21 173 8 gusting 10 21.1
2020-May-29 18:16 158 6 gusting 9 21.1
2020-May-29 18:11 144 5 gusting 9 21.7
2020-May-29 18:06 125 3 gusting 8 21.7
2020-May-29 18:01 148 4 gusting 11 21.7
2020-May-29 17:56 162 4 gusting 11 21.7
2020-May-29 17:51 164 7 gusting 11 22.2
2020-May-29 17:46 179 6 gusting 9 22.2
2020-May-29 17:41 188 3 gusting 11 22.8
2020-May-29 17:36 219 6 gusting 11 22.8
2020-May-29 17:31 209 6 gusting 11 22.8
2020-May-29 17:26 204 5 gusting 10 22.8
2020-May-29 17:21 182 6 gusting 10 22.8
2020-May-29 17:16 204 6 gusting 9 23.3
2020-May-29 17:11 168 6 gusting 9 23.3
2020-May-29 17:06 182 6 gusting 9 23.9
2020-May-29 17:01 220 5 gusting 8 23.9
2020-May-29 16:56 165 5 gusting 11 23.9
2020-May-29 16:51 162 6 gusting 11 23.9
2020-May-29 16:46 178 3 gusting 9 23.9
2020-May-29 16:41 128 5 gusting 10 24.4
2020-May-29 16:36 179 3 gusting 10 24.4
2020-May-29 16:31 209 5 gusting 7 24.4
2020-May-29 16:26 230 4 gusting 11 24.4
2020-May-29 16:21 178 6 gusting 11 24.4
2020-May-29 16:16 161 6 gusting 10 24.4
2020-May-29 16:11 195 5 gusting 10 24.4
2020-May-29 16:06 147 5 gusting 7 25.0
2020-May-29 16:01 183 4 gusting 9 25.0
2020-May-29 15:56 183 6 gusting 9 25.0
2020-May-29 15:51 193 1 gusting 5 25.0
2020-May-29 15:46 258 3 gusting 7 25.0
2020-May-29 15:41 175 2 gusting 9 25.0
2020-May-29 15:36 168 7 gusting 9 25.6
2020-May-29 15:31 200 4 gusting 8 25.6
2020-May-29 15:26 212 1 gusting 10 25.6
2020-May-29 15:21 224 5 gusting 10 25.6
2020-May-29 15:16 197 6 gusting 10 25.6
2020-May-29 15:11 158 1 gusting 10 25.6
2020-May-29 15:06 162 5 gusting 10 25.6
2020-May-29 15:01 258 4 gusting 9 25.6
2020-May-29 14:56 235 5 gusting 9 25.6
2020-May-29 14:51 286 1 gusting 9 25.6
2020-May-29 14:46 237 6 gusting 10 25.6
2020-May-29 14:41 179 6 gusting 10 25.6
2020-May-29 14:36 148 5 gusting 8 25.6
2020-May-29 14:31 221 4 gusting 9 25.6
2020-May-29 14:26 197 6 gusting 9 25.6
2020-May-29 14:21 161 5 gusting 7 25.6
2020-May-29 14:16 220 5 gusting 8 25.6
2020-May-29 14:11 192 5 gusting 8 25.6
2020-May-29 14:06 179 3 gusting 8 25.6
2020-May-29 14:01 086 2 gusting 10 25.6
2020-May-29 13:56 176 7 gusting 10 25.6
2020-May-29 13:51 178 4 gusting 12 25.6
2020-May-29 13:46 164 6 gusting 12 25.6
2020-May-29 13:41 195 7 gusting 10 25.6
2020-May-29 13:36 159 3 gusting 8 25.6
2020-May-29 13:31 212 5 gusting 8 25.0
2020-May-29 13:26 151 1 gusting 8 25.0
2020-May-29 13:21 220 2 gusting 7 25.0
2020-May-29 13:16 149 5 gusting 8 25.0
2020-May-29 13:11 134 4 gusting 8 25.0
2020-May-29 13:06 159 4 gusting 7 25.0
2020-May-29 13:01 124 2 gusting 7 25.0
2020-May-29 12:56 121 4 gusting 7 25.0
2020-May-29 12:51 127 1 gusting 9 25.0
2020-May-29 12:46 204 4 gusting 11 25.0
2020-May-29 12:41 189 7 gusting 11 25.0
2020-May-29 12:36 178 3 gusting 7 25.0
2020-May-29 12:31 128 6 gusting 9 25.6
2020-May-29 12:26 185 6 gusting 9 25.6
2020-May-29 12:21 168 5 gusting 9 25.6
2020-May-29 12:16 134 4 gusting 8 25.6
2020-May-29 12:11 169 3 gusting 8 25.0
2020-May-29 12:06 127 4 gusting 7 25.0
2020-May-29 12:01 333 2 gusting 5 24.4
2020-May-29 11:56 281 1 gusting 6 24.4
2020-May-29 11:51 219 3 gusting 6 24.4
2020-May-29 11:46 24.4
2020-May-29 11:41 269 0 gusting 7 24.4
2020-May-29 11:36 227 3 gusting 6 24.4
2020-May-29 11:31 202 3 gusting 7 23.9
2020-May-29 11:26 252 3 gusting 7 23.9
2020-May-29 11:21 214 3 gusting 7 23.9
2020-May-29 11:16 319 2 gusting 7 23.9
2020-May-29 11:11 162 5 gusting 9 23.9
2020-May-29 11:06 271 5 gusting 9 23.9
2020-May-29 11:01 241 4 gusting 8 23.3
2020-May-29 10:56 217 6 gusting 8 23.3
2020-May-29 10:51 219 4 gusting 8 23.3
2020-May-29 10:46 262 4 gusting 7 23.3
2020-May-29 10:41 271 5 gusting 7 23.3
2020-May-29 10:36 100 1 gusting 7 23.3
2020-May-29 10:31 234 2 gusting 7 22.8
2020-May-29 10:26 257 4 gusting 9 22.8
2020-May-29 10:21 278 3 gusting 9 22.2
2020-May-29 10:16 343 3 gusting 7 22.2
2020-May-29 10:11 274 5 gusting 7 22.2
2020-May-29 10:06 268 3 gusting 7 22.2
2020-May-29 10:01 212 1 gusting 8 22.2
2020-May-29 09:56 265 3 gusting 8 21.7
2020-May-29 09:51 313 3 gusting 7 21.7
2020-May-29 09:46 255 5 gusting 7 21.7
2020-May-29 09:41 250 3 gusting 6 21.7
2020-May-29 09:36 313 3 gusting 6 21.1
2020-May-29 09:31 235 4 gusting 8 21.1
2020-May-29 09:26 286 6 gusting 8 21.1
2020-May-29 09:21 227 4 gusting 7 21.1
2020-May-29 09:16 293 2 gusting 6 21.1
2020-May-29 09:11 269 3 gusting 7 21.1
2020-May-29 09:06 245 4 gusting 7 21.1
2020-May-29 09:01 244 3 gusting 8 21.1
2020-May-29 08:56 216 3 gusting 8 20.6
2020-May-29 08:51 237 6 gusting 7 20.6
2020-May-29 08:46 240 5 gusting 6 20.0
2020-May-29 08:41 247 3 gusting 6 20.0
2020-May-29 08:36 252 4 gusting 7 19.4
2020-May-29 08:31 278 3 gusting 7 19.4
2020-May-29 08:26 293 3 gusting 4 18.9
2020-May-29 08:21 296 3 gusting 5 18.3
2020-May-29 08:16 295 3 gusting 5 18.3
2020-May-29 08:11 286 2 gusting 6 17.8
2020-May-29 08:06 258 4 gusting 6 17.8
2020-May-29 08:01 279 3 gusting 5 17.8
2020-May-29 07:56 290 3 gusting 4 17.8
2020-May-29 07:51 241 2 gusting 4 17.8
2020-May-29 07:46 237 3 gusting 5 17.2
2020-May-29 07:41 262 2 gusting 8 17.2
2020-May-29 07:36 293 1 gusting 8 17.2
2020-May-29 07:31 266 4 gusting 7 17.2
2020-May-29 07:26 254 3 gusting 6 17.2
2020-May-29 07:21 214 4 gusting 8 17.2
2020-May-29 07:16 274 4 gusting 8 17.2
2020-May-29 07:11 233 4 gusting 6 16.7
2020-May-29 07:06 251 4 gusting 6 16.7
2020-May-29 07:01 257 3 gusting 6 16.1
2020-May-29 06:56 241 3 gusting 5 16.1
2020-May-29 06:51 233 2 gusting 4 15.6
2020-May-29 06:46 298 1 gusting 2 15.6
2020-May-29 06:41 298 15.0
2020-May-29 06:36 298 2 gusting 3 15.0
2020-May-29 06:31 293 14.4
2020-May-29 06:26 293 14.4
2020-May-29 06:21 293 0 gusting 1 13.9
2020-May-29 06:16 293 13.9
2020-May-29 06:11 293 0 gusting 2 13.9
2020-May-29 06:06 293 0 gusting 3 13.3
2020-May-29 06:01 293 0 gusting 3 13.3
2020-May-29 05:56 293 13.3
2020-May-29 05:51 293 12.8
2020-May-29 05:46 293 2 gusting 3 12.8
2020-May-29 05:41 290 1 gusting 2 12.8
2020-May-29 05:35 290 1 gusting 3 12.8
2020-May-29 05:30 290 1 gusting 3 12.2
2020-May-29 05:25 293 12.2
2020-May-29 05:20 293 12.2
2020-May-29 05:15 293 1 gusting 2 12.2
2020-May-29 05:10 293 1 gusting 2 12.2
2020-May-29 05:05 293 11.7
2020-May-29 05:00 295 11.7
2020-May-29 04:55 295 0 gusting 1 11.7
2020-May-29 04:50 295 0 gusting 1 11.7
2020-May-29 04:45 295 0 gusting 1 11.7
2020-May-29 04:40 295 11.7
2020-May-29 04:35 295 0 gusting 1 11.7
2020-May-29 04:30 295 0 gusting 2 11.7
2020-May-29 04:25 295 1 gusting 2 11.7
2020-May-29 04:20 295 0 gusting 2 11.7
2020-May-29 04:15 295 0 gusting 2 11.7
2020-May-29 04:10 295 1 gusting 2 11.7
2020-May-29 04:05 296 1 gusting 2 11.7
2020-May-29 04:00 296 1 gusting 3 11.7
2020-May-29 03:55 296 2 gusting 3 11.7
2020-May-29 03:50 306 1 gusting 3 11.7
2020-May-29 03:45 309 1 gusting 2 11.7
2020-May-29 03:40 309 1 gusting 3 11.7
2020-May-29 03:35 309 0 gusting 3 11.7
2020-May-29 03:30 312 2 gusting 3 11.7
2020-May-29 03:25 310 2 gusting 3 12.2
2020-May-29 03:20 314 2 gusting 3 12.2
2020-May-29 03:15 316 1 gusting 3 12.2
2020-May-29 03:10 316 2 gusting 5 12.2
2020-May-29 03:05 319 3 gusting 5 12.2
2020-May-29 03:00 320 3 gusting 4 12.2